TimeCST,TemperatureF,Dew PointF,Humidity,Sea Level PressureIn,VisibilityMPH,Wind Direction,Wind SpeedMPH,Gust SpeedMPH,PrecipitationIn,Events,Conditions,WindDirDegrees,DateUTC
12:53 AM,36.0,26.1,67,30.23,10.0,Calm,Calm,-,N/A,,Clear,0,2013-01-20 06:53:00
1:53 AM,30.0,24.1,79,30.25,10.0,North,3.5,-,N/A,,Clear,350,2013-01-20 07:53:00
2:53 AM,33.1,26.1,75,30.27,10.0,Calm,Calm,-,N/A,,Clear,0,2013-01-20 08:53:00
3:53 AM,30.0,24.1,79,30.27,10.0,Calm,Calm,-,N/A,,Clear,0,2013-01-20 09:53:00
4:53 AM,21.0,19.9,96,30.28,10.0,Calm,Calm,-,N/A,,Clear,0,2013-01-20 10:53:00
5:53 AM,24.1,21.0,88,30.29,10.0,Calm,Calm,-,N/A,,Clear,0,2013-01-20 11:53:00
6:53 AM,21.9,19.9,92,30.29,10.0,NNW,3.5,-,N/A,,Clear,340,2013-01-20 12:53:00
7:53 AM,24.1,21.0,88,30.30,10.0,Calm,Calm,-,N/A,,Clear,0,2013-01-20 13:53:00
8:53 AM,37.0,28.9,73,30.30,10.0,Calm,Calm,-,N/A,,Clear,0,2013-01-20 14:53:00
9:53 AM,41.0,30.0,65,30.31,10.0,ENE,5.8,-,N/A,,Clear,70,2013-01-20 15:53:00
10:53 AM,46.0,24.1,42,30.29,10.0,East,9.2,-,N/A,,Clear,100,2013-01-20 16:53:00
11:53 AM,51.1,24.1,35,30.23,10.0,ESE,10.4,-,N/A,,Clear,120,2013-01-20 17:53:00
12:53 PM,54.0,25.0,33,30.19,10.0,Calm,Calm,-,N/A,,Clear,0,2013-01-20 18:53:00
1:53 PM,55.9,28.0,34,30.17,10.0,Calm,Calm,-,N/A,,Clear,0,2013-01-20 19:53:00
2:53 PM,57.9,28.0,32,30.16,10.0,East,4.6,-,N/A,,Clear,90,2013-01-20 20:53:00
3:53 PM,57.0,28.9,34,30.16,10.0,NNE,9.2,-,N/A,,Clear,20,2013-01-20 21:53:00
4:53 PM,52.0,26.1,37,30.18,10.0,North,13.8,-,N/A,,Clear,10,2013-01-20 22:53:00
5:53 PM,46.0,21.9,39,30.21,10.0,North,12.7,-,N/A,,Clear,10,2013-01-20 23:53:00
6:53 PM,41.0,21.0,45,30.24,10.0,North,9.2,-,N/A,,Clear,10,2013-01-21 00:53:00
7:53 PM,39.0,19.9,46,30.27,10.0,North,13.8,-,N/A,,Clear,10,2013-01-21 01:53:00
8:53 PM,36.0,17.1,46,30.31,10.0,North,18.4,27.6,N/A,,Clear,10,2013-01-21 02:53:00
9:53 PM,30.9,16.0,54,30.35,10.0,North,13.8,-,N/A,,Clear,10,2013-01-21 03:53:00
10:53 PM,28.9,14.0,54,30.36,10.0,North,13.8,19.6,N/A,,Clear,10,2013-01-21 04:53:00
11:53 PM,28.0,14.0,56,30.36,10.0,North,10.4,-,N/A,,Clear,10,2013-01-21 05:53:00